User: anonymous
Location: Gipe Farm
(40.9466°N, 95.5370°W)
Time: 09:03:01
(UTC-05:00)
Language:

Cosmos 1842 - Orbit

View from above orbital plane
View from above orbital plane
View from above satellite
View from above satellite

Ground track
Ground track

The orbit data is extracted from the following two-line orbital elements,

1 17911U 87038A   14237.12909596  .00002011  00000-0  13353-3 0  5520
2 17911 082.4885 116.7488 0013993 137.1847 223.0473 15.06631364486843
Epoch (UTC): 25 August 2014 03:05:53
Eccentricity: 0.0013993
inclination: 82.4885°
perigee height: 537 km
apogee height: 556 km
right ascension of ascending node: 116.7488°
argument of perigee: 137.1847°
revolutions per day: 15.06631364
mean anomaly at epoch: 223.0473°
orbit number at epoch: 48684

The dashed part of the orbit path shows where the satellite is in the earth's shadow,  

DLR